FREGAT R/B, 40130

Orbit data source: Space-Track

FREGAT R/B, 40130 is space debris in HEO originally from a launch on Fri, 22 Aug 2014 UTC launched from the French Guiana (FRGUI). Debris objects in space refer to the collection of defunct objects orbiting the Earth. Examples of debris include non-operational satellites, rocket bodies, and fragments generated from explosions, collisions, or faulty payload assembly.

Loading next visibility...
Identifier
40130, 2014-050C
Orbit
HEO
Last TLE update
12 hours ago
Origin
Manufacturer
Lavochkin
Mission
Spacecraft
Bus & Motor
FREGAT, Unknown motor
Mass
1,050 kg wet, 1,050 kg dry
Launch date (UTC)
2014-08-22 (11 years ago)
Launch vehicle
Unknown
Launch site
French Guiana (FRGUI)
Object type
Payload
Rocket body
Debris
Shape & HBR
Irr, 3.3 m
Radar Cross Section
11.055 m², Large (>1 m²)

Expand to show TLE details & history

TLE from 12 hours ago
0 FREGAT R/B
1 40130U 14050C   25189.12267450  .00000063  00000-0  00000+0 0  9998
2 40130  48.6153 234.7660 2593378 210.2837 131.8595  2.05031498 81446
Epoch: 2025-07-08T02:56Z
TLE epoch observation values (Epoch: 2025-07-08T02:56:39.076Z)
Latitude
0.00001°
Longitude
-95.70023°
Altitude
25,085.421 km
Speed
3.179 km/s
True Right ascension
15h 39m 08s
True Declination
0° 00' 00"
Sunlit
Object was in daylight at epoch
Visualization orbit readout
Latitude
6.26411°
Longitude
-90.18294°
Altitude
25,773.45 km
Speed
3.093 km/s
Apparent Right ascension
15h 54m 31s
Apparent Declination
0° 53' 04"
Sunlit
Object is in daylight
Visualization observer readout
Local Sidereal Time
03:10:39
Azimuth
342.892° N
Elevation
-49.711°
Doppler factor
1
Orbital elements
Apogee altitude
26,582.995 km
Perigee altitude
13,007.499 km
Semi-major axis
26,173.384 km
Eccentricity
0.25934
Inclination
48.6153°
RAAN
234.766°
Arg. of periapsis
210.2837°
True anomaly
Unknown
Mean anomaly
131.8595°
Eccentric anomaly
Unknown
Mean motion
0.51257 °/min
Orbital period
702.34 mins
BSTAR
0
Loading maneuver chart data...
Loading SW <> Apogee altitude chart data...
Loading historical data...
Loading historical data...
Loading historical data...
Loading historical data...
Loading historical data...
Loading historical data...
Loading historical data...
Other satellites on launch #50 in the year 2014 (2014-08-22 UTC)

FREGAT R/B Visibility forecast

Observer location: undefined°, undefined°

Span
Click to sort rows by Start time (UTC) header in descending order
Start Az.
Max El. time (UTC)
Max El. Az.
Max El.
End time (UTC)
End Az.
447 mins2025-07-09 00:52:50.881Z164.954° S2025-07-09 05:04:50.881Z99.219° ESE43.721°2025-07-09 08:19:50.881Z73.332° E
|